Location: Lecco
(45.8566°N, 9.3977°E)
Time: 12:32:12
(UTC+02:00)

Vanguard 2 Rocket - Pass Details

Date: 15 August 2020
Orbit: 554 x 3326 km, 32.9° (Epoch: 24 September)

Event Time Altitude Azimuth Distance (km) Brightness Sun altitude
Rises 20:14:15 0° 252° (WSW) 3,469 10.9 1.8°
Reaches altitude 10° 20:16:37 10° 241° (WSW) 2,781 10.1 1.4°
Maximum altitude 20:22:36 32° 180° (S) 2,194 8.7 0.4°
Drops below altitude 10° 20:32:09 10° 124° (SE) 4,514 9.8 -1.2°
Enters shadow 20:36:17 - 118° (ESE) 5,738 10.3 -1.8°
Sets 20:37:13 0° 116° (ESE) 6,010 - -2.0°
